BGH7701 LBSF-LTAZ

Flight info

Callsign BGH7701
Flight time N/A
Altitude 35000
Route DEDIN3T/27 DEDIN L614 ADORU UA4 YAVRU UA17 BAG UW75 AZBUL
Aircraft A320/M-SDE3FGHIRWY/LB1

Departure

Time 2026-04-30 13:46
Airport Sofia Airport (LBSF)

Arrival

Time N/A
Airport Nevşehir Kapadokya Airport (LTAZ)
Time Latitude Longitude Altitude Speed Heading
2026-04-30 13:29 42.69027 23.40522 1743 ft 0 kts 196°
2026-04-30 13:40 42.69023 23.40520 1743 ft 1 kts 196°
2026-04-30 13:40 42.69002 23.40510 1743 ft 4 kts 207°
2026-04-30 13:40 42.68988 23.40457 1743 ft 8 kts 281°
2026-04-30 13:41 42.69007 23.40366 1743 ft 11 kts 285°
2026-04-30 13:41 42.69033 23.40250 1743 ft 14 kts 287°
2026-04-30 13:41 42.69062 23.40113 1743 ft 16 kts 285°
2026-04-30 13:41 42.69091 23.39958 1743 ft 18 kts 276°
2026-04-30 13:42 42.69124 23.39787 1743 ft 19 kts 287°
2026-04-30 13:42 42.69164 23.39607 1743 ft 16 kts 289°
2026-04-30 13:42 42.69395 23.39566 1743 ft 19 kts
2026-04-30 13:43 42.69531 23.39580 1744 ft 19 kts
2026-04-30 13:43 42.69632 23.39590 1744 ft 8 kts
2026-04-30 13:43 42.69664 23.39595 1744 ft 0 kts
2026-04-30 13:45 42.69706 23.39602 1744 ft 11 kts
2026-04-30 13:45 42.69769 23.39698 1744 ft 19 kts 91°
2026-04-30 13:45 42.69756 23.39875 1744 ft 19 kts 95°
2026-04-30 13:46 42.69743 23.40103 1744 ft 31 kts 100°
2026-04-30 13:46 42.69705 23.40793 1744 ft 112 kts 94°
2026-04-30 13:46 42.69619 23.42152 1773 ft 173 kts 94°
2026-04-30 13:46 42.69507 23.43799 2425 ft 178 kts 83°
2026-04-30 13:47 42.69954 23.45244 3363 ft 167 kts 41°
2026-04-30 13:47 42.70951 23.45928 4096 ft 167 kts 12°
2026-04-30 13:47 42.72145 23.46189 4580 ft 182 kts
2026-04-30 13:47 42.73468 23.46375 5055 ft 199 kts
2026-04-30 13:48 42.74907 23.46569 5433 ft 222 kts
2026-04-30 13:48 42.76376 23.47379 5929 ft 242 kts 37°
2026-04-30 13:48 42.77410 23.49259 6603 ft 259 kts 66°
2026-04-30 13:48 42.77636 23.51705 7423 ft 272 kts 95°
2026-04-30 13:49 42.76983 23.54126 8191 ft 283 kts 119°
2026-04-30 13:49 42.75850 23.56358 8980 ft 290 kts 124°
2026-04-30 13:49 42.74640 23.58542 9779 ft 295 kts 125°
2026-04-30 13:49 42.73406 23.60785 10525 ft 301 kts 126°
2026-04-30 13:50 42.72143 23.63146 10973 ft 318 kts 123°
2026-04-30 13:50 42.70318 23.68949 11761 ft 352 kts 109°
2026-04-30 13:50 42.69494 23.72160 12304 ft 362 kts 110°
2026-04-30 13:51 42.68619 23.75386 12987 ft 367 kts 111°
2026-04-30 13:51 42.67728 23.78614 13653 ft 373 kts 112°
2026-04-30 13:51 42.66814 23.81934 14347 ft 378 kts 112°
2026-04-30 13:51 42.65895 23.85260 14975 ft 383 kts 113°
2026-04-30 13:52 42.64949 23.88685 15604 ft 389 kts 113°
2026-04-30 13:52 42.64008 23.92097 16167 ft 394 kts 113°
2026-04-30 13:52 42.63042 23.95615 16784 ft 398 kts 113°
2026-04-30 13:52 42.62070 23.99134 17356 ft 404 kts 115°
2026-04-30 13:53 42.61068 24.02749 17897 ft 409 kts 114°
2026-04-30 13:53 42.60073 24.06343 18451 ft 414 kts 115°
2026-04-30 13:53 42.59055 24.10002 18972 ft 418 kts 114°
2026-04-30 13:53 42.58017 24.13746 19542 ft 422 kts 115°
2026-04-30 13:54 42.56991 24.17434 20044 ft 427 kts 115°
2026-04-30 13:54 42.55930 24.21245 20543 ft 431 kts 115°
2026-04-30 13:54 42.54879 24.25005 21047 ft 436 kts 114°
2026-04-30 13:54 42.53801 24.28858 21509 ft 441 kts 115°
2026-04-30 13:55 42.52710 24.32758 22025 ft 444 kts 114°
2026-04-30 13:55 42.51613 24.36684 22483 ft 448 kts 115°
2026-04-30 13:55 42.50498 24.40653 22944 ft 453 kts 115°
2026-04-30 13:55 42.49387 24.44606 23394 ft 456 kts 115°
2026-04-30 13:56 42.48260 24.48608 23873 ft 460 kts 115°
2026-04-30 13:56 42.47120 24.52656 24254 ft 465 kts 115°
2026-04-30 13:56 42.45952 24.56791 24687 ft 469 kts 115°
2026-04-30 13:56 42.44790 24.60903 25118 ft 472 kts 114°
2026-04-30 13:57 42.43623 24.65029 25559 ft 475 kts 115°
2026-04-30 13:57 42.42427 24.69251 25995 ft 478 kts 115°
2026-04-30 13:57 42.41252 24.73409 26341 ft 482 kts 115°
2026-04-30 13:57 42.40045 24.77660 26706 ft 485 kts 115°
2026-04-30 13:58 42.38825 24.81936 27021 ft 489 kts 116°
2026-04-30 13:58 42.36379 24.90505 27800 ft 493 kts 115°
2026-04-30 13:58 42.35149 24.94811 28295 ft 492 kts 115°
2026-04-30 13:59 42.33904 24.99154 28779 ft 492 kts 115°
2026-04-30 13:59 42.32674 25.03439 29225 ft 492 kts 115°
2026-04-30 13:59 42.31431 25.07750 29660 ft 493 kts 115°
2026-04-30 13:59 42.30203 25.11999 30127 ft 492 kts 115°
2026-04-30 14:00 42.28964 25.16288 30551 ft 492 kts 116°
2026-04-30 14:00 42.26469 25.24892 31300 ft 494 kts 115°
2026-04-30 14:00 42.25217 25.29207 31679 ft 494 kts 115°
2026-04-30 14:01 42.23966 25.33501 32045 ft 494 kts 115°
2026-04-30 14:01 42.22707 25.37815 32440 ft 494 kts 115°
2026-04-30 14:01 42.21455 25.42094 32790 ft 494 kts 115°
2026-04-30 14:01 42.20203 25.46382 33110 ft 495 kts 115°
2026-04-30 14:02 42.18946 25.50684 33468 ft 494 kts 114°
2026-04-30 14:02 42.17673 25.55015 33754 ft 496 kts 114°
2026-04-30 14:02 42.16416 25.59285 33987 ft 498 kts 114°
2026-04-30 14:02 42.15134 25.63650 34241 ft 499 kts 114°
2026-04-30 14:03 42.13857 25.67985 34495 ft 500 kts 115°
2026-04-30 14:03 42.12571 25.72357 34707 ft 502 kts 115°
2026-04-30 14:03 42.11292 25.76697 34877 ft 503 kts 115°
2026-04-30 14:03 42.10000 25.81060 35061 ft 503 kts 115°
2026-04-30 14:04 42.07409 25.89794 35113 ft 502 kts 115°
2026-04-30 14:04 42.04817 25.98481 35116 ft 503 kts 115°
2026-04-30 14:05 42.02191 26.07259 35109 ft 503 kts 115°
2026-04-30 14:05 41.99585 26.15932 35088 ft 502 kts 115°
2026-04-30 14:06 41.95667 26.28922 35072 ft 502 kts 115°
2026-04-30 14:07 41.93032 26.37633 35447 ft 502 kts 115°
2026-04-30 14:07 41.91712 26.41975 35765 ft 498 kts 115°
2026-04-30 14:07 41.90406 26.46267 36031 ft 495 kts 115°
2026-04-30 14:08 41.87795 26.54743 36494 ft 490 kts 116°
2026-04-30 14:08 41.86351 26.58907 36732 ft 488 kts 120°
2026-04-30 14:08 41.83157 26.67053 37080 ft 487 kts 122°
2026-04-30 14:09 41.79937 26.75189 37098 ft 485 kts 122°
2026-04-30 14:10 41.75163 26.87251 37105 ft 486 kts 122°
2026-04-30 14:10 41.72001 26.95208 37090 ft 485 kts 122°
2026-04-30 14:11 41.68815 27.03209 37100 ft 486 kts 122°
2026-04-30 14:11 41.65663 27.11106 37072 ft 485 kts 122°
2026-04-30 14:12 41.62476 27.19073 37112 ft 483 kts 122°
2026-04-30 14:12 41.59309 27.26957 37068 ft 483 kts 121°
2026-04-30 14:13 41.56482 27.35166 37070 ft 484 kts 116°
2026-04-30 14:13 41.53872 27.43381 37069 ft 484 kts 116°
2026-04-30 14:14 41.51207 27.51620 37072 ft 483 kts 116°
2026-04-30 14:14 41.48535 27.59785 37070 ft 482 kts 116°
2026-04-30 14:15 41.45828 27.68013 37052 ft 481 kts 117°
2026-04-30 14:15 41.43144 27.76164 37057 ft 481 kts 117°
2026-04-30 14:16 41.40432 27.84351 37064 ft 481 kts 117°
2026-04-30 14:16 41.37730 27.92485 37063 ft 481 kts 117°
2026-04-30 14:17 41.34999 28.00661 37071 ft 481 kts 117°
2026-04-30 14:17 41.32285 28.08765 37075 ft 480 kts 117°
2026-04-30 14:18 41.29569 28.16857 37076 ft 479 kts 117°
2026-04-30 14:18 41.25468 28.29032 37064 ft 478 kts 117°
2026-04-30 14:19 41.21394 28.41069 37071 ft 478 kts 117°
2026-04-30 14:20 41.18645 28.49169 37073 ft 478 kts 117°
2026-04-30 14:20 41.14540 28.61212 37059 ft 476 kts 117°
2026-04-30 14:21 41.11813 28.69205 37048 ft 476 kts 117°
2026-04-30 14:22 41.07695 28.81243 37057 ft 475 kts 117°
2026-04-30 14:22 41.03577 28.93194 37052 ft 474 kts 117°
2026-04-30 14:23 40.98072 29.09090 37042 ft 474 kts 117°
2026-04-30 14:24 40.93940 29.20966 37055 ft 473 kts 117°
2026-04-30 14:25 40.88350 29.36909 37045 ft 472 kts 117°
2026-04-30 14:26 40.84127 29.48818 37039 ft 472 kts 117°
2026-04-30 14:27 40.79884 29.60815 37043 ft 472 kts 117°
2026-04-30 14:27 40.77102 29.68679 37035 ft 471 kts 118°
2026-04-30 14:28 40.72909 29.80520 37040 ft 471 kts 118°
2026-04-30 14:28 40.70087 29.88436 37042 ft 470 kts 118°
2026-04-30 14:29 40.64472 30.04116 37038 ft 469 kts 118°
2026-04-30 14:31 40.57483 30.23512 37029 ft 469 kts 117°
2026-04-30 14:31 40.53291 30.35083 37017 ft 469 kts 118°
2026-04-30 14:32 40.49060 30.46716 37025 ft 469 kts 118°
2026-04-30 14:33 40.46244 30.54432 37030 ft 469 kts 117°
2026-04-30 14:33 40.42018 30.65975 37038 ft 469 kts 118°
2026-04-30 14:34 40.39158 30.73793 37033 ft 468 kts 118°
2026-04-30 14:34 40.36316 30.81524 37035 ft 468 kts 118°
2026-04-30 14:35 40.32046 30.93083 37030 ft 468 kts 118°
2026-04-30 14:36 40.29222 31.00700 37024 ft 467 kts 118°
2026-04-30 14:36 40.26366 31.08385 37025 ft 467 kts 118°
2026-04-30 14:37 40.23521 31.16017 37016 ft 467 kts 118°
2026-04-30 14:37 40.20660 31.23672 37018 ft 467 kts 118°
2026-04-30 14:38 40.17815 31.31267 37026 ft 467 kts 118°
2026-04-30 14:38 40.14944 31.38905 37024 ft 467 kts 118°
2026-04-30 14:39 40.12082 31.46504 37024 ft 467 kts 118°
2026-04-30 14:39 40.09215 31.54098 37022 ft 466 kts 118°
2026-04-30 14:40 40.04900 31.65489 37016 ft 466 kts 119°
2026-04-30 14:40 40.02024 31.73086 37016 ft 465 kts 119°
2026-04-30 14:41 39.99132 31.80695 37018 ft 465 kts 119°
2026-04-30 14:41 39.96248 31.88250 37014 ft 465 kts 119°
2026-04-30 14:42 39.93372 31.95763 37013 ft 465 kts 119°
2026-04-30 14:42 39.90488 32.03271 37015 ft 464 kts 119°
2026-04-30 14:43 39.87580 32.10780 37007 ft 464 kts 119°
2026-04-30 14:43 39.84652 32.18310 37001 ft 464 kts 119°
2026-04-30 14:44 39.81752 32.25784 36999 ft 464 kts 119°
2026-04-30 14:44 39.80313 32.29495 36827 ft 463 kts 119°
2026-04-30 14:44 39.78857 32.33244 36067 ft 470 kts 119°
2026-04-30 14:45 39.77370 32.37065 35198 ft 477 kts 119°
2026-04-30 14:45 39.75881 32.40891 34466 ft 479 kts 119°
2026-04-30 14:45 39.74379 32.44747 33734 ft 479 kts 119°
2026-04-30 14:45 39.72881 32.48584 33012 ft 479 kts 119°
2026-04-30 14:46 39.71382 32.52424 32266 ft 479 kts 119°
2026-04-30 14:46 39.69865 32.56302 31502 ft 480 kts 119°
2026-04-30 14:46 39.68368 32.60128 30717 ft 480 kts 119°
2026-04-30 14:46 39.66860 32.63976 29835 ft 483 kts 119°
2026-04-30 14:47 39.65349 32.67834 29066 ft 481 kts 120°
2026-04-30 14:47 39.63847 32.71677 28330 ft 479 kts 119°
2026-04-30 14:47 39.62331 32.75545 27603 ft 477 kts 120°
2026-04-30 14:47 39.60837 32.79352 26893 ft 475 kts 120°
2026-04-30 14:48 39.59363 32.83093 26402 ft 467 kts 120°
2026-04-30 14:48 39.57889 32.86830 25939 ft 460 kts 120°
2026-04-30 14:48 39.56455 32.90458 25463 ft 454 kts 120°
2026-04-30 14:48 39.55027 32.94066 25105 ft 447 kts 120°
2026-04-30 14:49 39.53616 32.97622 25048 ft 447 kts 120°
2026-04-30 14:49 39.52194 33.01202 25042 ft 448 kts 120°
2026-04-30 14:49 39.50762 33.04801 25041 ft 447 kts 120°
2026-04-30 14:49 39.49352 33.08343 25037 ft 448 kts 120°
2026-04-30 14:50 39.46505 33.15485 25029 ft 447 kts 120°
2026-04-30 14:50 39.45084 33.19048 25025 ft 447 kts 120°
2026-04-30 14:51 39.42241 33.26158 24935 ft 445 kts 120°
2026-04-30 14:51 39.40821 33.29702 24234 ft 447 kts 120°
2026-04-30 14:51 39.37862 33.36811 22551 ft 449 kts 123°
2026-04-30 14:52 39.36192 33.40176 21980 ft 443 kts 126°
2026-04-30 14:52 39.32829 33.46719 20793 ft 434 kts 126°
2026-04-30 14:52 39.31177 33.49921 20191 ft 431 kts 126°
2026-04-30 14:53 39.27885 33.56301 19014 ft 423 kts 126°
2026-04-30 14:53 39.26261 33.59449 18439 ft 419 kts 126°
2026-04-30 14:54 39.23074 33.65620 17288 ft 412 kts 127°
2026-04-30 14:54 39.19939 33.71703 16176 ft 404 kts 126°
2026-04-30 14:55 39.16869 33.77641 15079 ft 396 kts 126°
2026-04-30 14:55 39.15345 33.80580 14531 ft 392 kts 126°
2026-04-30 14:55 39.11847 33.87308 13254 ft 384 kts 126°
2026-04-30 14:56 39.09398 33.92007 12394 ft 377 kts 126°
2026-04-30 14:56 39.06550 33.97465 11613 ft 363 kts 125°
2026-04-30 14:57 39.05158 34.00131 11226 ft 356 kts 125°
2026-04-30 14:57 39.02438 34.05332 10445 ft 345 kts 125°
2026-04-30 14:58 38.99781 34.10335 9688 ft 334 kts 129°
2026-04-30 14:58 38.98233 34.12541 9342 ft 328 kts 137°
2026-04-30 14:58 38.94878 34.16352 8672 ft 317 kts 140°
2026-04-30 14:59 38.91629 34.19976 8158 ft 302 kts 139°
2026-04-30 15:00 38.88160 34.26002 7299 ft 269 kts 115°
2026-04-30 15:00 38.86565 34.30282 6618 ft 266 kts 116°
2026-04-30 15:01 38.84914 34.34372 5934 ft 248 kts 117°
2026-04-30 15:01 38.84132 34.36282 5623 ft 238 kts 117°
2026-04-30 15:01 38.82670 34.39883 5083 ft 213 kts 118°
2026-04-30 15:02 38.82015 34.41501 4850 ft 201 kts 118°
2026-04-30 15:02 38.81390 34.43042 4547 ft 187 kts 116°
2026-04-30 15:03 38.79797 34.46993 3885 ft 153 kts 116°
2026-04-30 15:03 38.78799 34.49461 3514 ft 161 kts 118°
2026-04-30 15:04 38.77772 34.52009 3094 ft 160 kts 114°
2026-04-30 15:04 38.76683 34.54705 3092 ft 69 kts 117°